TimeEST,TemperatureF,Dew PointF,Humidity,Sea Level PressureIn,VisibilityMPH,Wind Direction,Wind SpeedMPH,Gust SpeedMPH,PrecipitationIn,Events,Conditions,WindDirDegrees,DateUTC
12:17 AM,17.4,14.0,86,30.26,10.0,Calm,Calm,-,N/A,,Clear,0,2013-03-07 05:17:00
12:36 AM,13.3,10.9,90,30.26,10.0,Calm,Calm,-,N/A,,Clear,0,2013-03-07 05:36:00
12:57 AM,12.9,11.1,93,30.25,10.0,Calm,Calm,-,N/A,,Clear,0,2013-03-07 05:57:00
1:17 AM,10.9,8.4,90,30.26,7.0,Calm,Calm,-,N/A,,Clear,0,2013-03-07 06:17:00
1:36 AM,9.7,6.8,88,30.26,10.0,WNW,3.5,-,N/A,,Scattered Clouds,300,2013-03-07 06:36:00
1:57 AM,10.4,7.9,90,30.26,10.0,WNW,3.5,-,N/A,,Overcast,290,2013-03-07 06:57:00
2:17 AM,11.8,9.3,90,30.26,10.0,Calm,Calm,-,N/A,,Overcast,0,2013-03-07 07:17:00
2:36 AM,14.2,12.2,92,30.26,10.0,WNW,3.5,-,N/A,Snow,Light Snow,300,2013-03-07 07:36:00
2:57 AM,13.6,11.1,90,30.26,10.0,Calm,Calm,-,N/A,,Overcast,0,2013-03-07 07:57:00
3:16 AM,14.9,12.6,90,30.26,10.0,West,3.5,-,N/A,Snow,Light Snow,280,2013-03-07 08:16:00
3:37 AM,15.4,13.1,90,30.26,5.0,West,4.6,-,N/A,Snow,Light Snow,280,2013-03-07 08:37:00
3:57 AM,15.8,13.1,89,30.26,7.0,Calm,Calm,-,N/A,Snow,Light Snow,0,2013-03-07 08:57:00
4:16 AM,15.8,13.1,89,30.26,10.0,Calm,Calm,-,N/A,,Overcast,0,2013-03-07 09:16:00
4:37 AM,15.8,13.1,89,30.27,10.0,West,4.6,-,N/A,,Overcast,270,2013-03-07 09:37:00
4:57 AM,16.3,13.6,89,30.28,10.0,West,4.6,-,N/A,,Overcast,270,2013-03-07 09:57:00
5:16 AM,16.9,14.2,89,30.27,10.0,Calm,Calm,-,N/A,,Overcast,0,2013-03-07 10:16:00
5:37 AM,16.7,14.0,89,30.27,10.0,Calm,Calm,-,N/A,,Overcast,0,2013-03-07 10:37:00
5:56 AM,17.4,14.7,89,30.28,7.0,WNW,3.5,-,N/A,Snow,Light Snow,300,2013-03-07 10:56:00
6:50 AM,19.4,15.8,86,30.29,10.0,NW,6.9,-,N/A,Snow,Light Snow,310,2013-03-07 11:50:00
7:50 AM,19.4,15.8,86,30.32,5.0,NW,5.8,-,N/A,Snow,Light Snow,320,2013-03-07 12:50:00
8:05 AM,19.4,15.8,86,30.33,2.0,NW,5.8,-,N/A,Snow,Light Snow,320,2013-03-07 13:05:00
8:50 AM,19.4,15.8,86,30.33,7.0,North,9.2,-,N/A,Snow,Light Snow,360,2013-03-07 13:50:00
9:50 AM,21.2,12.2,68,30.34,10.0,NNW,11.5,-,N/A,,Overcast,330,2013-03-07 14:50:00
10:50 AM,21.2,12.2,68,30.35,10.0,North,5.8,-,N/A,,Scattered Clouds,360,2013-03-07 15:50:00
11:50 AM,23.0,12.2,63,30.34,10.0,North,4.6,-,N/A,,Overcast,360,2013-03-07 16:50:00
12:50 PM,23.0,14.0,68,30.37,10.0,NW,9.2,-,N/A,Snow,Light Snow,320,2013-03-07 17:50:00
1:50 PM,24.8,12.2,59,30.36,10.0,Calm,Calm,-,N/A,,Scattered Clouds,0,2013-03-07 18:50:00
2:55 PM,24.8,14.0,64,30.36,10.0,North,5.8,-,N/A,,Overcast,10,2013-03-07 19:55:00
3:50 PM,24.8,17.6,74,30.37,10.0,NNE,8.1,-,N/A,,Overcast,30,2013-03-07 20:50:00
4:50 PM,24.8,17.6,74,30.36,10.0,North,4.6,-,N/A,,Overcast,10,2013-03-07 21:50:00
5:50 PM,24.8,17.6,74,30.37,10.0,Calm,Calm,-,N/A,,Mostly Cloudy,0,2013-03-07 22:50:00
6:50 PM,24.8,19.4,80,30.38,10.0,ENE,3.5,-,N/A,,Mostly Cloudy,70,2013-03-07 23:50:00
7:50 PM,24.8,19.4,80,30.39,10.0,NE,3.5,-,N/A,,Overcast,50,2013-03-08 00:50:00
8:50 PM,24.8,19.4,80,30.39,10.0,ENE,4.6,-,N/A,,Overcast,60,2013-03-08 01:50:00
9:45 PM,23.0,19.4,86,30.40,10.0,East,3.5,-,N/A,,Scattered Clouds,80,2013-03-08 02:45:00
10:17 PM,21.6,17.6,85,30.39,10.0,Calm,Calm,-,N/A,,Clear,0,2013-03-08 03:17:00
10:37 PM,18.7,16.2,90,30.39,10.0,Calm,Calm,-,N/A,,Clear,0,2013-03-08 03:37:00
10:56 PM,16.2,14.2,92,30.39,10.0,Calm,Calm,-,N/A,,Mostly Cloudy,0,2013-03-08 03:56:00
11:17 PM,18.1,16.5,93,30.39,10.0,Calm,Calm,-,N/A,,Overcast,0,2013-03-08 04:17:00
11:37 PM,18.1,16.2,92,30.40,10.0,Calm,Calm,-,N/A,,Overcast,0,2013-03-08 04:37:00
11:56 PM,18.5,16.5,92,30.40,10.0,Calm,Calm,-,N/A,,Overcast,0,2013-03-08 04:56:00